Weather Roundup
Issued by NWS

Home | Current Version | Previous Version | Text Only | Print | Product List | Glossary On
Versions: 1 2 3 4 5 6 7 8 9 10 11 12 13 14 15 16 17 18 19 20 21 22 23 24 25 26 27 28 29 30 31 32 33 34 35 36 37 38 39 40 41 42 43 44 45 46 47 48 49 50
164
NZUS93 KARX 172359
HRRWXR

CURRENT HOURLY OBSERVATIONS ACROSS
MUCH OF THE UPPER MISSISSIPPI VALLEY
NATIONAL WEATHER SERVICE LA CROSSE WI
600 PM CST FRI NOV 17 2017


...SOUTHEAST MINNESOTA...


CITY           SKY/WX    TMP DP  RH WIND       PRES   REMARKS
ROCHESTER      CLOUDY    37  36  96 E3        29.60S FOG
ROCHESTER/MAYO CLOUDY    37  37 100 CALM      29.61R
WINONA         CLOUDY    36  36 100 CALM      29.63R FOG
AUSTIN         DRIZZLE   37  36  93 CALM      29.59R
ALBERT LEA     CLOUDY    37  37 100 CALM      29.60R FOG
DODGE CENTER   FOG       36  36 100 NE3       29.60S VSB 1
PRESTON        CLOUDY    36  35  96 SE3       29.60S FOG
OWATONNA       CLOUDY    37  37 100 CALM      29.62R FOG
FARIBAULT      CLOUDY    37  37 100 CALM      29.63R FOG
$$

...ELSEWHERE IN MINNESOTA...


CITY           SKY/WX    TMP DP  RH WIND       PRES   REMARKS
MINNEAPOLIS    CLOUDY    38  38 100 N5        29.65R FOG     WCI  34
INTNL FALLS    CLOUDY    30  23  75 NW12      29.66R WCI  20
DULUTH         PTCLDY    32  32 100 CALM      29.64R FOG
RED WING       CLOUDY    37  36  93 CALM      29.63R FOG
REDWOOD FALLS  PTCLDY    40  33  76 N8        29.65R WCI  34
MANKATO        FOG       38  38 100 NE6       29.63R VSB 1/4 WCI  33
WORTHINGTON    CLOUDY    41  34  76 N13       29.63R
FAIRMONT       LGT RAIN  41  39  93 N5        29.61S
$$

...SOUTHWEST WISCONSIN...


CITY           SKY/WX    TMP DP  RH WIND       PRES   REMARKS
LA CROSSE      CLOUDY    39  38  96 E5        29.62S
PRAIRIE DU CHI DRIZZLE   38  37  95 CALM      29.62R
BOSCOBEL       LGT RAIN  39  37  92 CALM      29.63S FOG
LONE ROCK      LGT RAIN  38  38 100 NE5       29.62F FOG     WCI  34
PLATTEVILLE    CLOUDY    39  39 100 SE6       29.61F WCI  34
FORT MC COY    CLOUDY    35  35 100 CALM      29.63F FOG
CAMP DOUGLAS   CLOUDY    36  36 100 SE3       29.62F FOG
MAUSTON-NEW LI DRIZZLE   37  37  99 CALM      29.62F
VIROQUA        CLOUDY    36  36 100 S3        29.61S
WIS DELLS      RAIN      37  36  96 S5        29.62S WCI  33
$$

...ELSEWHERE IN WISCONSIN...


CITY           SKY/WX    TMP DP  RH WIND       PRES   REMARKS
MILWAUKEE      LGT RAIN  43  39  86 S10       29.66F
MADISON        DRIZZLE   38  37  97 S10       29.62F FOG     WCI  31
GREEN BAY      CLOUDY    39  38  96 SW5       29.67S
EAU CLAIRE     CLOUDY    37  36  96 CALM      29.63R FOG
BLACK RVR FLS  CLOUDY    37  37 100 CALM      29.61F FOG
MEDFORD        CLOUDY    32  32 100 SE3       29.60F FOG
WAUSAU         CLOUDY    33  33 100 E3        29.60F FOG
WIS RAPIDS     CLOUDY    35  34  96 SE5       29.62F FOG     WCI  31
MARSHFIELD     CLOUDY    34  32  92 SE3       29.59F FOG
RICE LAKE      CLOUDY    35  35 100 CALM      29.65R FOG
$$

...NORTHEAST IOWA...


CITY           SKY/WX    TMP DP  RH WIND       PRES   REMARKS
WATERLOO       FOG       40  39  97 E3        29.58S VSB 1
DUBUQUE        LGT RAIN  39  39 100 S10       29.60S FOG     WCI  32
DECORAH        CLOUDY    37  37 100 CALM      29.59S FOG
MASON CITY     CLOUDY    40  39  97 NE5       29.58S FOG
CHARLES CITY   CLOUDY    39  39 100 SE7       29.58F FOG     WCI  34
OELWEIN        FOG       39  39 100 E3        29.59F VSB 3/4
$$

...ELSEWHERE IN IOWA...


CITY           SKY/WX    TMP DP  RH WIND       PRES   REMARKS
DES MOINES     CLOUDY    51  49  92 E3        29.54R FOG
IOWA CITY      CLOUDY    45  42  89 SE6       29.60F FOG
FORT DODGE     FOG       44  44 100 E3        29.56R VSB 3/4
MARSHALLTOWN   CLOUDY    44  43  96 NE3       29.56R FOG
CEDAR RAPIDS   CLOUDY    43  43 100 SE6       29.57S FOG
$$

...NORTHERN ILLINOIS...


CITY           SKY/WX    TMP DP  RH WIND       PRES   REMARKS
CHICAGO-OHARE  CLOUDY    43  39  86 S14       29.68F
CHICAGO-MIDWAY TSTM      43  40  89 S12G21    29.70S FOG
MOLINE         CLOUDY    47  41  80 E6        29.59F
ROCKFORD       DRIZZLE   40  38  93 S14       29.66F FOG     WCI  32
PEORIA         CLOUDY    47  43  86 S16G24    29.66F
$$

NOTE: "FAIR" INDICATES FEW OR NO CLOUDS BELOW 12,000 FEET WITH NO
SIGNIFICANT WEATHER AND/OR OBSTRUCTIONS TO VISIBILITY. WIND
SPEEDS ARE IN MILES-PER-HOUR.




USA.gov is the U.S. government's official web portal to all federal, state and local government web resources and services.